Hourly Data Report for September 15, 2017

All times are specified in Local Standard Time (LST). Add 1 hour to adjust for Daylight Saving Time where and when it is observed.

BAKER LAKE A
NUNAVUT

64°17'56.000" N
96°04'40.000" W
18.60 m
2300503
71926
YBK

Download Data

Hourly Data (September 2017)
Hourly Data Report for September 15, 2017
Temp Definition
°C
Dew Point Temp Definition
°C
Rel Hum Definition
%
Wind Dir Definition
10's deg

Wind Spd Definition
km/h
Visibility Definition
km
Stn Press Definition
kPa
Hmdx Definition


Wind Chill Definition


Weather Definition


TIME
00:00 Legend Double Dagger -0.8 -2.9 86 30 14 24.1 101.64   -5 Clear
01:00 Legend Double Dagger -0.7 -2.2 89 28 15 32.2 101.63   -5 LegendNANA
02:00 Legend Double Dagger -0.5 -1.8 91 27 19 24.1 101.61   -6 LegendNANA
03:00 Legend Double Dagger 0.0 -1.0 93 27 17 24.1 101.58   -5 Mainly Clear
04:00 Legend Double Dagger -0.6 -1.9 91 23 16 24.1 101.55   -5 LegendNANA
05:00 Legend Double Dagger -1.0 -1.9 93 22 10 32.2 101.54   -5 LegendNANA
06:00 Legend Double Dagger -1.5 -2.1 96 36 2 32.2 101.48   -2 Mostly Cloudy
07:00 Legend Double Dagger 1.0 0.1 93 23 11 32.2 101.41     LegendNANA
08:00 Legend Double Dagger 2.4 1.3 92 22 12 40.2 101.34     Rain
09:00 Legend Double Dagger 4.9 4.0 94 19 9 40.2 101.27     Rain
10:00 Legend Double Dagger 7.3 4.9 85 23 18 40.2 101.22     Rain
11:00 Legend Double Dagger 7.7 6.0 89 24 21 40.2 101.14     Rain
12:00 Legend Double Dagger 7.9 6.2 89 25 24 24.1 101.10     Rain
13:00 Legend Double Dagger 8.0 6.9 93 24 24 11.3 101.07     Rain
14:00 Legend Double Dagger 8.3 7.2 93 25 25 32.2 101.00     Rain
15:00 Legend Double Dagger 8.9 8.1 94 25 22 16.1 100.97     Rain
16:00 Legend Double Dagger 9.4 8.4 93 26 20 40.2 100.95     Rain
17:00 Legend Double Dagger 9.8 8.5 91 25 19 40.2 100.94     LegendNANA
18:00 Legend Double Dagger 9.7 8.5 92 26 19 40.2 100.96     Rain
19:00 Legend Double Dagger 9.5 8.4 93 26 23 24.1 100.98     Rain
20:00 Legend Double Dagger 9.2 8.6 96 27 21 16.1 100.98     Rain
21:00 Legend Double Dagger 9.2 8.6 96 28 16 24.1 101.00     Rain
22:00 Legend Double Dagger 9.1 8.3 95 30 21 24.1 101.06     Drizzle
23:00 Legend Double Dagger 8.7 7.6 92 32 26 24.1 101.12     LegendNANA

Notes on Data Quality.

Legend

  • E = Estimated
  • M = Missing
  • NA = Not Available
  • ‡ = Partner data that is not subject to review by the National Climate Archives
Date modified: